TimeAKDT,TemperatureF,Dew PointF,Humidity,Sea Level PressureIn,VisibilityMPH,Wind Direction,Wind SpeedMPH,Gust SpeedMPH,PrecipitationIn,Events,Conditions,WindDirDegrees,DateUTC
12:16 AM,26.6,21.2,80,30.12,10.0,Calm,Calm,-,N/A,,Overcast,0,2013-10-26 08:16:00
12:36 AM,26.6,21.2,80,30.13,10.0,Calm,Calm,-,N/A,,Mostly Cloudy,0,2013-10-26 08:36:00
12:56 AM,24.8,21.2,86,30.15,10.0,Calm,Calm,-,N/A,,Partly Cloudy,0,2013-10-26 08:56:00
1:16 AM,24.8,21.2,86,30.16,10.0,Calm,Calm,-,N/A,,Mostly Cloudy,0,2013-10-26 09:16:00
1:36 AM,24.8,21.2,86,30.16,10.0,Calm,Calm,-,N/A,,Mostly Cloudy,0,2013-10-26 09:36:00
1:56 AM,24.8,21.2,86,30.17,10.0,Calm,Calm,-,N/A,,Partly Cloudy,0,2013-10-26 09:56:00
2:16 AM,21.2,21.2,100,30.18,10.0,Calm,Calm,-,N/A,,Clear,0,2013-10-26 10:16:00
2:36 AM,21.2,19.4,93,30.18,10.0,Calm,Calm,-,N/A,,Clear,0,2013-10-26 10:36:00
2:56 AM,21.2,19.4,93,30.19,10.0,Calm,Calm,-,N/A,,Clear,0,2013-10-26 10:56:00
3:16 AM,21.2,19.4,93,30.20,10.0,Calm,Calm,-,N/A,,Clear,0,2013-10-26 11:16:00
3:36 AM,19.4,19.4,100,30.21,10.0,Calm,Calm,-,N/A,,Clear,0,2013-10-26 11:36:00
3:56 AM,19.4,17.6,93,30.22,10.0,Calm,Calm,-,N/A,,Clear,0,2013-10-26 11:56:00
4:16 AM,19.4,17.6,93,30.23,10.0,SSW,3.5,-,N/A,,Clear,210,2013-10-26 12:16:00
4:36 AM,19.4,17.6,93,30.24,10.0,Calm,Calm,-,N/A,,Clear,0,2013-10-26 12:36:00
4:56 AM,17.6,15.8,93,30.26,10.0,Calm,Calm,-,N/A,,Clear,0,2013-10-26 12:56:00
5:16 AM,17.6,17.6,100,30.27,10.0,Calm,Calm,-,N/A,,Clear,0,2013-10-26 13:16:00
5:36 AM,17.6,17.6,100,30.28,10.0,Calm,Calm,-,N/A,,Clear,0,2013-10-26 13:36:00
5:56 AM,17.6,15.8,93,30.28,10.0,Calm,Calm,-,N/A,,Clear,0,2013-10-26 13:56:00
6:16 AM,17.6,15.8,93,30.29,10.0,Calm,Calm,-,N/A,,Clear,0,2013-10-26 14:16:00
6:36 AM,17.6,15.8,93,30.31,10.0,Calm,Calm,-,N/A,,Clear,0,2013-10-26 14:36:00
6:56 AM,17.6,15.8,93,30.31,10.0,Calm,Calm,-,N/A,,Clear,0,2013-10-26 14:56:00
7:16 AM,17.6,15.8,93,30.33,10.0,Calm,Calm,-,N/A,,Clear,0,2013-10-26 15:16:00
7:36 AM,15.8,14.0,93,30.33,10.0,Calm,Calm,-,N/A,,Clear,0,2013-10-26 15:36:00
7:56 AM,15.8,15.8,100,30.34,10.0,Calm,Calm,-,N/A,,Clear,0,2013-10-26 15:56:00
8:16 AM,15.8,14.0,93,30.35,10.0,Calm,Calm,-,N/A,,Clear,0,2013-10-26 16:16:00
8:36 AM,15.8,15.8,100,30.37,10.0,Calm,Calm,-,N/A,,Clear,0,2013-10-26 16:36:00
8:56 AM,15.8,14.0,93,30.38,10.0,Calm,Calm,-,N/A,,Clear,0,2013-10-26 16:56:00
9:16 AM,14.0,14.0,100,30.38,10.0,Calm,Calm,-,N/A,,Clear,0,2013-10-26 17:16:00
9:36 AM,14.0,12.2,93,30.39,10.0,Calm,Calm,-,N/A,,Clear,0,2013-10-26 17:36:00
9:56 AM,14.0,14.0,100,30.39,10.0,Calm,Calm,-,N/A,,Clear,0,2013-10-26 17:56:00
10:16 AM,15.8,14.0,93,30.40,10.0,Calm,Calm,-,N/A,,Clear,0,2013-10-26 18:16:00
10:36 AM,17.6,15.8,93,30.41,10.0,Calm,Calm,-,N/A,,Clear,0,2013-10-26 18:36:00
10:56 AM,19.4,17.6,93,30.42,10.0,Calm,Calm,-,N/A,,Clear,0,2013-10-26 18:56:00
11:16 AM,21.2,17.6,86,30.42,10.0,Calm,Calm,-,N/A,,Clear,0,2013-10-26 19:16:00
11:36 AM,21.2,17.6,86,30.42,10.0,SE,3.5,-,N/A,,Clear,130,2013-10-26 19:36:00
11:56 AM,21.2,19.4,93,30.43,10.0,Calm,Calm,-,N/A,,Clear,0,2013-10-26 19:56:00
12:16 PM,24.8,19.4,80,30.43,10.0,Calm,Calm,-,N/A,,Clear,0,2013-10-26 20:16:00
12:36 PM,26.6,21.2,80,30.43,10.0,Calm,Calm,-,N/A,,Clear,0,2013-10-26 20:36:00
12:56 PM,28.4,21.2,74,30.44,10.0,Calm,Calm,-,N/A,,Clear,0,2013-10-26 20:56:00
1:16 PM,30.2,23.0,75,30.44,10.0,Calm,Calm,-,N/A,,Clear,0,2013-10-26 21:16:00
1:36 PM,30.2,23.0,75,30.44,10.0,Calm,Calm,-,N/A,,Clear,0,2013-10-26 21:36:00
1:56 PM,32.0,24.8,75,30.45,10.0,Calm,Calm,-,N/A,,Clear,0,2013-10-26 21:56:00
2:16 PM,32.0,23.0,69,30.45,10.0,Calm,Calm,-,N/A,,Clear,0,2013-10-26 22:16:00
2:36 PM,32.0,23.0,69,30.43,10.0,Calm,Calm,-,N/A,,Clear,0,2013-10-26 22:36:00
2:56 PM,33.8,24.8,70,30.42,10.0,Calm,Calm,-,N/A,,Clear,0,2013-10-26 22:56:00
3:16 PM,33.8,23.0,65,30.42,10.0,Calm,Calm,-,N/A,,Clear,0,2013-10-26 23:16:00
3:36 PM,35.6,23.0,60,30.42,10.0,Calm,Calm,-,N/A,,Clear,0,2013-10-26 23:36:00
3:56 PM,33.8,24.8,70,30.41,10.0,Calm,Calm,-,N/A,,Clear,0,2013-10-26 23:56:00
4:16 PM,33.8,24.8,70,30.41,10.0,SW,3.5,-,N/A,,Clear,220,2013-10-27 00:16:00
4:36 PM,35.6,24.8,65,30.41,10.0,South,3.5,-,N/A,,Clear,180,2013-10-27 00:36:00
4:56 PM,33.8,24.8,70,30.40,10.0,Calm,Calm,-,N/A,,Clear,0,2013-10-27 00:56:00
5:16 PM,32.0,23.0,69,30.40,10.0,SW,3.5,-,N/A,,Clear,230,2013-10-27 01:16:00
5:36 PM,32.0,23.0,69,30.40,10.0,Calm,Calm,-,N/A,,Clear,0,2013-10-27 01:36:00
5:56 PM,28.4,24.8,86,30.41,10.0,Calm,Calm,-,N/A,,Clear,0,2013-10-27 01:56:00
6:16 PM,28.4,23.0,80,30.41,10.0,Calm,Calm,-,N/A,,Clear,0,2013-10-27 02:16:00
6:36 PM,30.2,23.0,75,30.41,10.0,Calm,Calm,-,N/A,,Clear,0,2013-10-27 02:36:00
6:56 PM,30.2,21.2,69,30.41,10.0,Calm,Calm,-,N/A,,Clear,0,2013-10-27 02:56:00
7:16 PM,30.2,21.2,69,30.40,10.0,SSW,4.6,-,N/A,,Clear,200,2013-10-27 03:16:00
7:36 PM,30.2,21.2,69,30.40,10.0,SW,3.5,-,N/A,,Clear,230,2013-10-27 03:36:00
7:56 PM,30.2,21.2,69,30.40,10.0,South,3.5,-,N/A,,Clear,190,2013-10-27 03:56:00
8:16 PM,32.0,21.2,64,30.40,10.0,WSW,4.6,-,N/A,,Clear,250,2013-10-27 04:16:00
8:36 PM,32.0,21.2,64,30.39,10.0,Calm,Calm,-,N/A,,Clear,0,2013-10-27 04:36:00
8:56 PM,30.2,21.2,69,30.38,10.0,SW,4.6,-,N/A,,Clear,230,2013-10-27 04:56:00
9:16 PM,30.2,21.2,69,30.37,10.0,West,3.5,-,N/A,,Clear,260,2013-10-27 05:16:00
9:36 PM,32.0,19.4,60,30.37,10.0,Calm,Calm,-,N/A,,Clear,0,2013-10-27 05:36:00
9:56 PM,30.2,21.2,69,30.36,10.0,West,4.6,-,N/A,,Clear,260,2013-10-27 05:56:00
10:16 PM,33.8,19.4,56,30.35,10.0,Calm,Calm,-,N/A,,Clear,0,2013-10-27 06:16:00
10:36 PM,33.8,19.4,56,30.34,10.0,WSW,3.5,-,N/A,,Clear,240,2013-10-27 06:36:00
10:56 PM,33.8,19.4,56,30.33,10.0,WSW,3.5,-,N/A,,Clear,240,2013-10-27 06:56:00
11:16 PM,33.8,19.4,56,30.32,10.0,Calm,Calm,-,N/A,,Clear,0,2013-10-27 07:16:00
11:36 PM,35.6,17.6,48,30.31,10.0,Calm,Calm,-,N/A,,Clear,0,2013-10-27 07:36:00
11:56 PM,35.6,19.4,52,30.29,10.0,Calm,Calm,-,N/A,,Clear,0,2013-10-27 07:56:00